Hourly Data Report for July 08, 2017

PITT MEADOWS CS
BRITISH COLUMBIA

49°12'29.964" N
122°41'24.076" W
5.00 m
1106178
71775
WMM

Download Data

Hourly Data (July 2017)
Hourly Data Report for July 8, 2017
TIME
LST
Temp Definition
°C
Dew Point Definition
°C
Rel Hum Definition
%
Precip. Amount Definition
mm

Wind Dir Definition
10's deg

Wind Spd Definition
km/h
Visibility Definition
km
Stn Press Definition
kPa
Hmdx Definition


Wind Chill Definition


Weather Definition


00:00 15.3 10.2 72 0.0 6 2   102.12     LegendNANA
01:00 14.9 10.6 75 0.0 36 2   102.11     LegendNANA
02:00 14.7 11.0 78 0.0 18 1   102.13     LegendNANA
03:00 14.6 11.6 82 0.0 16 3   102.11     LegendNANA
04:00 14.0 10.4 79 0.0 22 5   102.09     LegendNANA
05:00 13.5 10.3 81 0.0   0   102.12     LegendNANA
06:00 15.4 10.4 72 0.0 12 4   102.13     LegendNANA
07:00 16.2 10.2 68 0.0 11 2   102.09     LegendNANA
08:00 17.8 11.5 67 0.0 21 6   102.05     LegendNANA
09:00 20.1 11.6 58 0.0 20 3   102.00     LegendNANA
10:00 21.9 11.4 51 0.0 21 4   101.94     LegendNANA
11:00 23.7 12.8 50 0.0 16 5   101.90 26   LegendNANA
12:00 24.9 12.6 46 0.0 25 10   101.85 27   LegendNANA
13:00 25.0 13.3 48 0.0 26 12   101.80 28   LegendNANA
14:00 27.0 13.2 43 0.0 27 11   101.74 30   LegendNANA
15:00 25.4 12.5 45 0.0 26 10   101.69 28   LegendNANA
16:00 25.4 12.4 44 0.0 24 8   101.64 28   LegendNANA
17:00 25.5 13.5 47 0.0 19 8   101.58 29   LegendNANA
18:00 23.8 12.5 49 0.0 19 8   101.56 26   LegendNANA
19:00 23.5 11.0 45 0.0 18 7   101.57 25   LegendNANA
20:00 21.1 11.0 53 0.0 18 6   101.58     LegendNANA
21:00 18.8 11.7 63 0.0 14 3   101.63     LegendNANA
22:00 18.9 12.1 65 0.0 10 4   101.63     LegendNANA
23:00 17.9 12.5 71 0.0 11 6   101.63     LegendNANA

Notes on Data Quality.

Legend

  • E = Estimated
  • M = Missing
  • NA = Not Available*
  • [empty] = Indicates an unobserved value
Date modified: